Weather History for Lufkin, TX

Change the Weather History Date:

Friday, May 24, 2013

  Actual Average Record
Temperature  
Mean Temperature 80 °F 76 °F  
Max Temperature 90 °F 87 °F 95 °F (1937)
Min Temperature 70 °F 66 °F 50 °F (1910)
Degree Days  
Heating Degree Days 0 0  
Month to date heating degree days 25 1  
Since 1 July heating degree days 1615 1914  
Cooling Degree Days 15 11  
Month to date cooling degree days 199 207  
Year to date cooling degree days 400 383  
Growing Degree Days 30 (Base 50)    
Moisture  
Dew Point 70 °F    
Average Humidity 75    
Maximum Humidity 94    
Minimum Humidity 56    
Precipitation  
Precipitation 0.02 in 0.16 in 1.60 in (1919)
Month to date precipitation 3.28 3.49  
Year to date precipitation 14.86 18.37  
Snow  
Snow 0.00 in - - ()
Month to date snowfall 0.0  
Since 1 July snowfall 0.0  
Snow Depth 0.00 in    
Sea Level Pressure  
Sea Level Pressure 30.10 in    
Wind  
Wind Speed 4 mph (ESE)    
Max Wind Speed 12 mph    
Max Gust Speed 31 mph    
Visibility 9 miles    
Events Rain    
T = Trace of Precipitation, MM = Missing Value Source: NWS Daily Summary

Daily Weather History Graph

Daily Weather History Graph

Search for Another Location

Airport:

Trip Planner

Search our weather history database for the weather conditions in past years. The results will help you decide how hot, cold, wet, or windy it might be!

Date:

Astronomy

May. 24, 2013 Rise Set
Actual Time 6:18 AM CDT 8:13 PM CDT
Civil Twilight 5:51 AM CDT 8:41 PM CDT
Nautical Twilight 5:18 AM CDT 9:13 PM CDT
Astronomical Twilight 4:43 AM CDT 9:49 PM CDT
Moon 7:58 PM CDT (5/24) 5:47 AM CDT (5/24)
Length of Visible Light 14h 50m
Length of Day
13h 55m
Full, 100% of the Moon is Illuminated
May 24
Full
May 24
Full
May 31
Last Quarter
Jun 8
New
Jun 16
First Quarter

Hourly Weather History & Observations

Time (CDT) Temp. Heat Index Dew Point Humidity Pressure Visibility Wind Dir Wind Speed Gust Speed Precip Events Conditions
12:53 AM 73.9 °F - 71.1 °F 91% 30.04 in 10.0 mi Calm Calm - N/A   Clear
1:53 AM 73.0 °F - 70.0 °F 90% 30.03 in 9.0 mi Calm Calm - N/A   Clear
2:53 AM 73.0 °F - 70.0 °F 90% 30.02 in 7.0 mi Calm Calm - N/A   Clear
3:53 AM 72.0 °F - 70.0 °F 93% 30.02 in 5.0 mi ESE 3.5 mph - N/A   Clear
4:13 AM 71.6 °F - 69.8 °F 94% 30.04 in 6.0 mi Calm Calm - N/A   Partly Cloudy
4:31 AM 73.4 °F - 71.6 °F 94% 30.04 in 6.0 mi Calm Calm - N/A   Mostly Cloudy
5:53 AM 75.0 °F - 72.0 °F 90% 30.06 in 4.0 mi Variable 3.5 mph - N/A   Overcast
6:53 AM 75.0 °F - 72.0 °F 90% 30.07 in 5.0 mi SSE 3.5 mph - N/A   Overcast
7:53 AM 75.9 °F - 73.0 °F 91% 30.10 in 6.0 mi SE 4.6 mph - N/A   Overcast
8:53 AM 77.0 °F - 73.0 °F 88% 30.13 in 10.0 mi Calm Calm - N/A   Overcast
9:45 AM 78.8 °F - 73.4 °F 83% 30.15 in 10.0 mi ESE 5.8 mph - N/A   Overcast
9:53 AM 79.0 °F - 73.0 °F 82% 30.14 in 10.0 mi ESE 5.8 mph - N/A   Overcast
10:31 AM 80.6 °F 84.6 °F 71.6 °F 74% 30.16 in 10.0 mi ESE 8.1 mph - N/A   Overcast
10:53 AM 81.0 °F 85.2 °F 72.0 °F 74% 30.15 in 10.0 mi Calm Calm - N/A   Overcast
11:23 AM 82.4 °F 87.2 °F 71.6 °F 70% 30.17 in 10.0 mi East 3.5 mph - N/A   Overcast
11:53 AM 82.9 °F 88.0 °F 72.0 °F 69% 30.16 in 10.0 mi Calm Calm - N/A   Mostly Cloudy
12:24 PM 84.2 °F 90.9 °F 73.4 °F 70% 30.16 in 10.0 mi East 8.1 mph - N/A   Mostly Cloudy
12:53 PM 84.0 °F 89.6 °F 72.0 °F 67% 30.14 in 10.0 mi SE 6.9 mph - N/A   Mostly Cloudy
1:28 PM 86.0 °F 91.8 °F 71.6 °F 62% 30.15 in 10.0 mi East 6.9 mph - N/A   Mostly Cloudy
1:53 PM 87.1 °F 92.8 °F 71.1 °F 59% 30.13 in 10.0 mi SE 10.4 mph - N/A   Mostly Cloudy
2:53 PM 87.1 °F 93.6 °F 72.0 °F 61% 30.10 in 10.0 mi East 9.2 mph - N/A   Mostly Cloudy
3:53 PM 89.1 °F 95.0 °F 71.1 °F 55% 30.07 in 10.0 mi East 11.5 mph - N/A   Mostly Cloudy
4:53 PM 88.0 °F 93.8 °F 71.1 °F 57% 30.05 in 10.0 mi East 10.4 mph - N/A   Partly Cloudy
5:53 PM 87.1 °F 93.6 °F 72.0 °F 61% 30.06 in 10.0 mi East 6.9 mph - N/A   Clear
6:42 PM 75.2 °F - 60.8 °F 61% 30.12 in 10.0 mi SSW 15.0 mph 28.8 mph N/A   Overcast
6:53 PM 75.0 °F - 61.0 °F 62% 30.12 in 10.0 mi South 9.2 mph - N/A   Overcast
7:05 PM 73.4 °F - 62.6 °F 69% 30.11 in 2.0 mi South 8.1 mph - 0.00 in Rain Light Rain
7:12 PM 71.6 °F - 62.6 °F 73% 30.10 in 6.0 mi South 3.5 mph - 0.01 in Rain Light Rain
7:53 PM 71.1 °F - 64.9 °F 81% 30.09 in 10.0 mi Calm Calm - 0.02 in Rain Light Rain
8:53 PM 70.0 °F - 66.0 °F 87% 30.10 in 10.0 mi NNE 8.1 mph - 0.00 in Rain Light Rain
9:53 PM 71.1 °F - 66.9 °F 87% 30.11 in 10.0 mi Calm Calm - 0.00 in   Partly Cloudy
10:53 PM 73.0 °F - 66.0 °F 79% 30.14 in 10.0 mi NE 3.5 mph - N/A   Mostly Cloudy
11:53 PM 73.0 °F - 68.0 °F 84% 30.14 in 10.0 mi Calm Calm - N/A   Scattered Clouds